Home > Weather > Brandon > Past weeks

Flag for Canada Weather for the Past 2 Weeks in Brandon, Manitoba, Canada

Now
43 °F

Scattered clouds.


Feels Like: 43 °F
Forecast: 38 / 82 °F
Wind: No wind

Location: Brandon

Current Time: May 4, 2016 at 8:58:10 AM

Latest Report: May 4, 2016 at 8:00 AM


Visibility: 15 mi

Pressure: 30.14 "Hg

Humidity: 71%

Dew Point: 34 °F

Location of BrandonLocation

Historic Weather in Brandon — Graph

°F

Brandon Temperature Yesterday

Maximum temperature yesterday: 66 °F (at 2:00 PM)
Minimum temperature yesterday: 43 °F (at 3:00 AM)
Average temperature yesterday: 55 °F

High & Low Weather Summary for the Past Weeks

 TemperatureHumidityPressure
High73 °F (Apr 20, 5:00 PM)100% (Apr 20, 12:00 AM)30.40 "Hg (Apr 20, 12:00 AM)
Low25 °F (Apr 22, 4:00 AM)15% (Apr 28, 4:00 PM)29.86 "Hg (Apr 20, 6:00 PM)
Average46 °F48%30.15 "Hg
* Reported Apr 19 8:00 AM — May 4 8:00 AM, Brandon, Weather by CustomWeather, © 2016

Note: Actual official high and low records may vary slightly from our data, if they occured in-between our weather recording intervals... More about our weather records

Advertising

Brandon Weather History for the Previous 24 Hours

Scroll right to see more
 ConditionsComfort  
Time TempWeatherWind HumidityBarometerVisibility
8:00 AM
Wed, May 4
43 °FScattered clouds.No wind71%30.14 "Hg15 mi
7:00 AM32 °FPassing clouds.3 mph75%30.14 "Hg15 mi
6:00 AM30 °FPassing clouds.5 mph80%30.13 "Hg15 mi
5:00 AM32 °FPassing clouds.3 mph75%30.13 "Hg15 mi
4:00 AM32 °FClear.3 mph69%30.12 "Hg15 mi
3:00 AM34 °FClear.3 mph70%30.13 "Hg15 mi
2:00 AM36 °FClear.3 mph65%30.12 "Hg15 mi
1:00 AM37 °FClear.2 mph60%30.12 "Hg15 mi
12:00 AM41 °FClear.5 mph53%30.11 "Hg15 mi
11:00 PM
Tue, May 3
43 °FClear.6 mph49%30.09 "Hg15 mi
10:00 PM48 °FPassing clouds.10 mph43%30.08 "Hg15 mi
9:00 PM52 °FPassing clouds.9 mph38%30.08 "Hg15 mi
8:00 PM61 °FPassing clouds.15 mph22%30.07 "Hg15 mi
7:00 PM63 °FPassing clouds.15 mph20%30.07 "Hg15 mi
6:00 PM64 °FSunny.17 mph22%30.06 "Hg15 mi
5:00 PM66 °FSunny.17 mph21%30.06 "Hg15 mi
4:00 PM66 °FSunny.17 mph22%30.05 "Hg15 mi
3:00 PM66 °FSunny.17 mph24%30.05 "Hg15 mi
2:00 PM66 °FSunny.22 mph21%30.05 "Hg15 mi
1:00 PM64 °FSunny.21 mph24%30.04 "Hg15 mi
12:00 PM63 °FSunny.17 mph30%30.05 "Hg15 mi
11:00 AM61 °FPassing clouds.17 mph31%30.04 "Hg15 mi
10:00 AM59 °FPassing clouds.17 mph36%30.03 "Hg15 mi
9:00 AM57 °FPassing clouds.16 mph39%30.02 "Hg15 mi
8:00 AM50 °FPassing clouds.12 mph54%30.00 "Hg15 mi
Weather by CustomWeather, © 2016

See weather overviewHow to use our weather pages